TimeCDT,TemperatureF,Dew PointF,Humidity,Sea Level PressureIn,VisibilityMPH,Wind Direction,Wind SpeedMPH,Gust SpeedMPH,PrecipitationIn,Events,Conditions,WindDirDegrees,DateUTC
12:54 AM,57.9,30.9,36,29.82,10.0,South,15.0,-,N/A,,Clear,190,2014-04-10 05:54:00
1:54 AM,57.9,30.9,36,29.81,10.0,South,16.1,21.9,N/A,,Clear,190,2014-04-10 06:54:00
2:54 AM,57.0,32.0,39,29.78,10.0,South,16.1,-,N/A,,Clear,190,2014-04-10 07:54:00
3:54 AM,57.0,32.0,39,29.75,10.0,South,15.0,-,N/A,,Clear,190,2014-04-10 08:54:00
4:54 AM,57.0,34.0,42,29.73,10.0,SSW,18.4,-,N/A,,Clear,200,2014-04-10 09:54:00
5:54 AM,57.0,35.1,44,29.71,10.0,South,23.0,28.8,N/A,,Clear,190,2014-04-10 10:54:00
6:54 AM,57.9,36.0,44,29.74,10.0,SSW,20.7,25.3,N/A,,Clear,200,2014-04-10 11:54:00
7:54 AM,57.9,37.0,46,29.77,10.0,SSW,16.1,-,N/A,,Clear,210,2014-04-10 12:54:00
8:54 AM,60.8,39.2,45,29.76,10.0,SW,18.4,-,N/A,,Clear,220,2014-04-10 13:54:00
9:54 AM,66.0,41.0,40,29.75,10.0,SW,18.4,-,N/A,,Clear,230,2014-04-10 14:54:00
10:54 AM,69.1,44.1,40,29.76,10.0,West,18.4,29.9,N/A,,Clear,260,2014-04-10 15:54:00
11:54 AM,66.0,44.1,45,29.79,10.0,WNW,21.9,26.5,N/A,,Clear,300,2014-04-10 16:54:00
12:54 PM,66.9,42.1,40,29.78,10.0,West,9.2,-,N/A,,Clear,280,2014-04-10 17:54:00
1:54 PM,64.9,41.0,42,29.85,10.0,NW,19.6,-,N/A,,Clear,310,2014-04-10 18:54:00
2:54 PM,64.9,39.0,39,29.85,10.0,North,11.5,-,N/A,,Clear,350,2014-04-10 19:54:00
3:54 PM,64.0,39.9,41,29.88,10.0,NNW,10.4,-,N/A,,Mostly Cloudy,340,2014-04-10 20:54:00
4:54 PM,63.0,34.0,34,29.87,10.0,North,13.8,-,N/A,,Mostly Cloudy,10,2014-04-10 21:54:00
5:54 PM,62.1,35.1,37,29.89,10.0,North,9.2,-,N/A,,Overcast,360,2014-04-10 22:54:00
6:54 PM,61.0,34.0,36,29.88,10.0,North,12.7,-,N/A,,Clear,360,2014-04-10 23:54:00
7:54 PM,54.0,30.9,41,29.91,10.0,North,8.1,-,N/A,,Clear,350,2014-04-11 00:54:00
8:54 PM,50.0,30.0,46,29.94,10.0,NNW,8.1,-,N/A,,Clear,340,2014-04-11 01:54:00
9:54 PM,52.0,27.0,38,29.98,10.0,NNE,6.9,-,N/A,,Clear,20,2014-04-11 02:54:00
10:54 PM,48.9,27.0,43,29.99,10.0,North,6.9,-,N/A,,Clear,10,2014-04-11 03:54:00
11:54 PM,51.1,25.0,36,30.00,10.0,NNE,3.5,-,N/A,,Clear,30,2014-04-11 04:54:00